| time (UTC) | temp F | wind direction | speed knots | gust knots | rain 1hr in | rain 24hr in | rain mn in | humidity % | barometer mb |
| 20260902204553 | 0 | 219 | 0.0 | 3.5 | 0.00 | 0.00 | 0.00 | 1017.2 | |
| 20260902203046 | 0 | 41 | 2.6 | 7.8 | 0.00 | 0.00 | 0.00 | 1017.1 | |
| 20260902201542 | 0 | 36 | 0.0 | 10.4 | 0.00 | 0.00 | 0.00 | 1016.8 | |
| 20260902200036 | 0 | 51 | 7.0 | 10.4 | 0.00 | 0.00 | 0.00 | 1016.6 | |
| 20260902194533 | 0 | 41 | 5.2 | 10.4 | 0.00 | 0.00 | 0.00 | 1016.6 | |
| 20260902193028 | 0 | 69 | 3.5 | 11.3 | 0.00 | 0.00 | 0.00 | 1016.6 | |
| 20260902191522 | 0 | 14 | 4.3 | 13.0 | 0.00 | 0.00 | 0.00 | 1016.8 | |
| 20260902190019 | 0 | 50 | 7.8 | 13.0 | 0.00 | 0.00 | 0.00 | 1016.7 | |
| 20260902184514 | 0 | 36 | 5.2 | 13.9 | 0.00 | 0.00 | 0.00 | 1016.6 | |
| 20260902183010 | 0 | 55 | 7.0 | 11.3 | 0.00 | 0.00 | 0.00 | 1016.7 | |
| 20260902181505 | 0 | 56 | 3.5 | 10.4 | 0.00 | 0.00 | 0.00 | 1016.6 | |
| 20260902180000 | 0 | 58 | 7.8 | 12.2 | 0.00 | 0.00 | 0.00 | 1016.8 | |
| 20260902174604 | 0 | 56 | 9.6 | 16.5 | 0.00 | 0.00 | 0.00 | 1016.9 | |
| 20260902173053 | 0 | 36 | 8.7 | 16.5 | 0.00 | 0.00 | 0.00 | 1017.1 | |
| 20260902171558 | 0 | 57 | 12.2 | 17.4 | 0.00 | 0.00 | 0.00 | 1017.2 | |
| 20260902170043 | 0 | 36 | 7.8 | 18.2 | 0.00 | 0.00 | 0.00 | 1017.3 | |
| 20260902164539 | 0 | 36 | 13.9 | 19.1 | 0.00 | 0.00 | 0.00 | 1017.3 | |
| 20260902163035 | 0 | 41 | 10.4 | 20.0 | 0.00 | 0.00 | 0.00 | 1017.3 | |
| 20260902161540 | 0 | 50 | 13.0 | 22.6 | 0.00 | 0.00 | 0.00 | 1017.1 | |
| 20260902160028 | 0 | 36 | 9.6 | 20.0 | 0.00 | 0.00 | 0.00 | 1017.0 | |
| 20260902154530 | 0 | 62 | 9.6 | 20.0 | 0.00 | 0.00 | 0.00 | 1016.9 | |
| 20260902153018 | 0 | 25 | 12.2 | 19.1 | 0.00 | 0.00 | 0.00 | 1016.9 | |
| 20260902151514 | 0 | 36 | 7.0 | 20.9 | 0.00 | 0.00 | 0.00 | 1017.3 | |
| 20260902150009 | 0 | 87 | 11.3 | 22.6 | 0.00 | 0.00 | 0.00 | 1017.3 | |
| 20260902144511 | 0 | 89 | 10.4 | 19.1 | 0.00 | 0.00 | 0.00 | 1017.6 | |
| 20260902143008 | 0 | 60 | 11.3 | 19.1 | 0.00 | 0.00 | 0.00 | 1017.4 | |
| 20260902141516 | 0 | 30 | 7.8 | 18.2 | 0.00 | 0.00 | 0.00 | 1017.5 | |
| 20260902140007 | 0 | 92 | 9.6 | 16.5 | 0.00 | 0.00 | 0.00 | 1017.5 | |
| 20260902134506 | 0 | 26 | 5.2 | 16.5 | 0.00 | 0.00 | 0.00 | 1017.5 | |
| 20260902133042 | 0 | 68 | 7.0 | 19.1 | 0.00 | 0.00 | 0.00 | 1017.6 | |
| 20260902131541 | 0 | 73 | 10.4 | 18.2 | 0.00 | 0.00 | 0.00 | 1017.6 | |
| 20260902130042 | 0 | 41 | 7.0 | 14.8 | 0.00 | 0.00 | 0.00 | 1017.8 | |
| 20260902124540 | 0 | 29 | 8.7 | 20.0 | 0.00 | 0.00 | 0.00 | 1018.1 | |
| 20260902123043 | 0 | 52 | 10.4 | 18.2 | 0.00 | 0.00 | 0.00 | 1018.1 | |
| 20260902121538 | 0 | 41 | 11.3 | 20.0 | 0.00 | 0.00 | 0.00 | 1018.3 | |
| 20260902120035 | 0 | 28 | 10.4 | 17.4 | 0.00 | 0.00 | 0.00 | 1018.5 | |
| 20260902114602 | 0 | 355 | 13.0 | 20.0 | 0.00 | 0.00 | 0.00 | 1018.5 | |
| 20260902113027 | 0 | 46 | 6.1 | 16.5 | 0.00 | 0.00 | 0.00 | 1018.7 | |
| 20260902111522 | 0 | 29 | 7.8 | 15.6 | 0.00 | 0.00 | 0.00 | 1018.7 | |
| 20260902110025 | 0 | 20 | 8.7 | 15.6 | 0.00 | 0.00 | 0.00 | 1018.7 | |
| 20260902104522 | 0 | 1 | 8.7 | 16.5 | 0.00 | 0.00 | 0.00 | 1018.7 | |
| 20260902103017 | 0 | 23 | 7.8 | 15.6 | 0.00 | 0.00 | 0.00 | 1018.5 | |
| 20260902101506 | 0 | 41 | 2.6 | 13.0 | 0.00 | 0.00 | 0.00 | 1018.6 | |
| 20260902100012 | 0 | 8 | 0.0 | 5.2 | 0.00 | 0.00 | 0.00 | 1018.6 | |
| 20260902094505 | 0 | 3 | 6.1 | 12.2 | 0.00 | 0.00 | 0.00 | 1018.6 | |
| 20260902093001 | 0 | 339 | 5.2 | 9.6 | 0.00 | 0.00 | 0.00 | 1018.6 | |
| 20260902091558 | 0 | 356 | 2.6 | 11.3 | 0.00 | 0.00 | 0.00 | 1018.5 | |
| 20260902090059 | 0 | 28 | 0.0 | 7.0 | 0.00 | 0.00 | 0.00 | 1018.5 | |
| 20260902084547 | 0 | 238 | 3.5 | 7.0 | 0.00 | 0.00 | 0.00 | 1018.2 | |
| 20260902083045 | 0 | 243 | 1.7 | 6.1 | 0.00 | 0.00 | 0.00 | 1018.1 | |
| 20260902081541 | 0 | 212 | 0.9 | 7.0 | 0.00 | 0.00 | 0.00 | 1017.8 | |
| 20260902080033 | 0 | 248 | 4.3 | 13.9 | 0.00 | 0.00 | 0.00 | 1017.6 | |
| 20260902074539 | 0 | 229 | 3.5 | 7.0 | 0.00 | 0.00 | 0.00 | 1017.6 | |
| 20260902073025 | 0 | 247 | 0.9 | 4.3 | 0.00 | 0.00 | 0.00 | 1017.5 | |
| 20260902071521 | 0 | 252 | 0.0 | 0.0 | 0.00 | 0.00 | 0.00 | 1017.4 | |
| 20260902070017 | 0 | 260 | 2.6 | 9.6 | 0.00 | 0.00 | 0.00 | 1017.3 | |
| 20260902064512 | 0 | 75 | 5.2 | 18.2 | 0.00 | 0.00 | 0.00 | 1017.4 | |
| 20260902063016 | 0 | 303 | 8.7 | 16.5 | 0.00 | 0.00 | 0.00 | 1017.3 | |
| 20260902061521 | 0 | 287 | 3.5 | 13.9 | 0.00 | 0.00 | 0.00 | 1017.2 | |
| 20260902060111 | 0 | 273 | 2.6 | 8.7 | 0.00 | 0.00 | 0.00 | 1017.1 | |
| 20260902054559 | 0 | 325 | 4.3 | 7.8 | 0.00 | 0.00 | 0.00 | 1017.0 | |
| 20260902053102 | 0 | 238 | 4.3 | 9.6 | 0.00 | 0.00 | 0.00 | 1016.9 | |
| 20260902051555 | 0 | 54 | 4.3 | 18.2 | 0.00 | 0.00 | 0.00 | 1016.8 | |
| 20260902050047 | 0 | 354 | 3.5 | 15.6 | 0.00 | 0.00 | 0.00 | 1016.7 | |
| 20260902044540 | 0 | 227 | 8.7 | 17.4 | 0.00 | 0.00 | 0.00 | 1016.5 | |
| 20260902043037 | 0 | 31 | 9.6 | 16.5 | 0.00 | 0.00 | 0.00 | 1016.6 | |
| 20260902041535 | 0 | 70 | 0.0 | 20.0 | 0.00 | 0.00 | 0.00 | 1016.8 | |
| 20260902040026 | 0 | 265 | 6.1 | 10.4 | 0.00 | 0.00 | 0.00 | 1016.7 | |
| 20260902034526 | 0 | 201 | 2.6 | 8.7 | 0.00 | 0.00 | 0.00 | 1017.0 | |
| 20260902033017 | 0 | 259 | 0.9 | 5.2 | 0.00 | 0.00 | 0.00 | 1017.1 | |
| 20260902031516 | 0 | 342 | 4.3 | 7.0 | 0.00 | 0.00 | 0.00 | 1017.1 | |
| 20260902030007 | 0 | 219 | 0.0 | 5.2 | 0.00 | 0.00 | 0.00 | 1017.2 | |
| 20260902024503 | 0 | 228 | 0.9 | 7.0 | 0.00 | 0.00 | 0.00 | 1017.2 | |
| 20260902023103 | 0 | 250 | 3.5 | 13.9 | 0.00 | 0.00 | 0.00 | 1017.1 | |
| 20260902021555 | 0 | 214 | 0.9 | 13.0 | 0.00 | 0.00 | 0.00 | 1017.2 | |
| 20260902020056 | 0 | 226 | 6.1 | 10.4 | 0.00 | 0.00 | 0.00 | 1017.2 | |
| 20260902014543 | 0 | 231 | 5.2 | 12.2 | 0.00 | 0.00 | 0.00 | 1017.4 | |
| 20260902013039 | 0 | 230 | 2.6 | 7.8 | 0.00 | 0.00 | 0.00 | 1017.6 | |
| 20260902011532 | 0 | 221 | 6.1 | 8.7 | 0.00 | 0.00 | 0.00 | 1017.7 | |
| 20260902010033 | 0 | 258 | 2.6 | 8.7 | 0.00 | 0.00 | 0.00 | 1017.8 | |
| 20260902004520 | 0 | 233 | 7.0 | 11.3 | 0.00 | 0.00 | 0.00 | 1017.8 | |
| 20260902003018 | 0 | 241 | 5.2 | 8.7 | 0.00 | 0.00 | 0.00 | 1018.0 | |
| 20260902001517 | 0 | 258 | 0.0 | 3.5 | 0.00 | 0.00 | 0.00 | 1017.9 | |
| 20260902000018 | 0 | 271 | 1.7 | 7.8 | 0.00 | 0.00 | 0.00 | 1018.0 | |
| 20260901234503 | 0 | 308 | 1.7 | 8.7 | 0.00 | 0.00 | 0.00 | 1018.2 | |
| 20260901233104 | 0 | 274 | 2.6 | 14.8 | 0.00 | 0.00 | 0.00 | 1018.4 | |
| 20260901231557 | 0 | 253 | 1.7 | 7.8 | 0.00 | 0.00 | 0.00 | 1018.4 | |
| 20260901230045 | 0 | 36 | 3.5 | 9.6 | 0.00 | 0.00 | 0.00 | 1018.4 | |
| 20260901224545 | 0 | 260 | 0.0 | 9.6 | 0.00 | 0.00 | 0.00 | 1018.3 | |
| 20260901223046 | 0 | 19 | 6.1 | 12.2 | 0.00 | 0.00 | 0.00 | 1018.5 | |
| 20260901221543 | 0 | 243 | 4.3 | 7.8 | 0.00 | 0.00 | 0.00 | 1018.6 | |
| 20260901220107 | 0 | 54 | 5.2 | 9.6 | 0.00 | 0.00 | 0.00 | 1018.5 | |
| 20260901214542 | 0 | 231 | 0.9 | 5.2 | 0.00 | 0.00 | 0.00 | 1018.7 | |
| 20260901213041 | 0 | 231 | 2.6 | 8.7 | 0.00 | 0.00 | 0.00 | 1018.6 | |
| 20260901211543 | 0 | 303 | 1.7 | 12.2 | 0.00 | 0.00 | 0.00 | 1018.4 | |
| 20260901210046 | 0 | 11 | 2.6 | 8.7 | 0.00 | 0.00 | 0.00 | 1018.3 |